| time (UTC) | temp F | wind direction | speed MPH | gust MPH | rain 1hr in | rain 24hr in | rain mn in | humidity % | barometer mb |
| 20260507003604 | 57 | 0 | 0.0 | 0.0 | 0.01 | 0.18 | 0.14 | 99 | 1011.9 |
| 20260507002705 | 57 | 0 | 0.0 | 0.0 | 0.02 | 0.18 | 0.14 | 99 | 1011.9 |
| 20260507001804 | 57 | 0 | 0.0 | 0.0 | 0.03 | 0.17 | 0.13 | 99 | 1011.9 |
| 20260507000925 | 58 | 0 | 0.0 | 0.0 | 0.04 | 0.17 | 0.13 | 99 | 1012.0 |
| 20260507000004 | 58 | 0 | 0.0 | 0.0 | 0.06 | 0.17 | 0.13 | 99 | 1012.0 |
| 20260506235405 | 58 | 0 | 0.0 | 0.0 | 0.06 | 0.17 | 0.13 | 99 | 1011.9 |
| 20260506234525 | 57 | 0 | 0.0 | 0.0 | 0.07 | 0.17 | 0.13 | 99 | 1011.9 |
| 20260506233626 | 57 | 0 | 0.0 | 0.0 | 0.07 | 0.17 | 0.13 | 98 | 1012.2 |
| 20260506232704 | 58 | 0 | 0.0 | 0.0 | 0.07 | 0.16 | 0.12 | 98 | 1012.0 |
| 20260506231825 | 58 | 0 | 0.0 | 0.0 | 0.07 | 0.14 | 0.10 | 98 | 1012.1 |
| 20260506230904 | 58 | 0 | 0.0 | 0.0 | 0.08 | 0.13 | 0.09 | 98 | 1012.2 |
| 20260506230004 | 58 | 0 | 0.0 | 0.0 | 0.07 | 0.11 | 0.07 | 98 | 1012.1 |
| 20260506225405 | 58 | 0 | 0.0 | 0.0 | 0.08 | 0.11 | 0.07 | 98 | 1012.2 |
| 20260506224525 | 58 | 0 | 0.0 | 0.0 | 0.08 | 0.10 | 0.06 | 97 | 1012.5 |
| 20260506223605 | 58 | 0 | 0.0 | 0.0 | 0.08 | 0.10 | 0.06 | 97 | 1012.0 |
| 20260506222704 | 58 | 0 | 0.0 | 0.0 | 0.07 | 0.09 | 0.05 | 96 | 1012.3 |
| 20260506221804 | 58 | 0 | 0.0 | 0.0 | 0.05 | 0.07 | 0.03 | 96 | 1012.0 |
| 20260506220904 | 59 | 0 | 0.0 | 0.0 | 0.03 | 0.05 | 0.01 | 95 | 1012.3 |
| 20260506220006 | 59 | 0 | 0.0 | 0.0 | 0.02 | 0.04 | 0.00 | 94 | 1012.1 |
| 20260506215407 | 59 | 0 | 0.0 | 0.0 | 0.01 | 0.03 | 0.03 | 94 | 1012.0 |
| 20260506214505 | 59 | 0 | 0.0 | 0.0 | 0.00 | 0.02 | 0.02 | 95 | 1011.7 |
| 20260506213603 | 59 | 0 | 0.0 | 0.0 | 0.00 | 0.02 | 0.02 | 96 | 1012.0 |
| 20260506212709 | 59 | 0 | 0.0 | 0.0 | 0.00 | 0.02 | 0.02 | 96 | 1011.7 |
| 20260506211804 | 59 | 0 | 0.0 | 0.0 | 0.00 | 0.02 | 0.02 | 95 | 1012.0 |
| 20260506210904 | 59 | 0 | 0.0 | 0.0 | 0.00 | 0.02 | 0.02 | 95 | 1011.9 |
| 20260506210047 | 59 | 0 | 0.0 | 0.0 | 0.00 | 0.02 | 0.02 | 94 | 1011.9 |
| 20260506205425 | 59 | 0 | 0.0 | 0.0 | 0.00 | 0.02 | 0.02 | 94 | 1011.6 |
| 20260506204504 | 60 | 0 | 0.0 | 0.0 | 0.00 | 0.02 | 0.02 | 93 | 1011.6 |
| 20260506203625 | 60 | 0 | 0.0 | 0.0 | 0.00 | 0.02 | 0.02 | 92 | 1011.7 |
| 20260506202746 | 60 | 0 | 0.0 | 0.0 | 0.00 | 0.02 | 0.02 | 92 | 1011.4 |
| 20260506201819 | 60 | 171 | 0.0 | 1.0 | 0.01 | 0.02 | 0.02 | 93 | 1011.4 |
| 20260506200907 | 60 | 0 | 0.0 | 0.0 | 0.01 | 0.02 | 0.02 | 93 | 1011.9 |
| 20260506200025 | 60 | 0 | 0.0 | 0.0 | 0.01 | 0.02 | 0.02 | 93 | 1011.9 |
| 20260506195405 | 60 | 0 | 0.0 | 0.0 | 0.01 | 0.02 | 0.02 | 93 | 1011.9 |
| 20260506194515 | 60 | 0 | 0.0 | 0.0 | 0.01 | 0.02 | 0.02 | 93 | 1011.7 |
| 20260506192710 | 61 | 0 | 0.0 | 0.0 | 0.01 | 0.02 | 0.02 | 92 | 1011.9 |
| 20260506191805 | 61 | 96 | 0.0 | 1.0 | 0.00 | 0.01 | 0.01 | 91 | 1011.7 |
| 20260506190925 | 61 | 0 | 0.0 | 0.0 | 0.00 | 0.01 | 0.01 | 91 | 1011.6 |
| 20260506190005 | 61 | 0 | 0.0 | 0.0 | 0.00 | 0.01 | 0.01 | 90 | 1011.5 |
| 20260506185425 | 61 | 0 | 0.0 | 0.0 | 0.00 | 0.01 | 0.01 | 90 | 1011.4 |
| 20260506184504 | 61 | 0 | 0.0 | 0.0 | 0.00 | 0.01 | 0.01 | 90 | 1011.3 |
| 20260506183607 | 61 | 0 | 0.0 | 0.0 | 0.00 | 0.01 | 0.01 | 90 | 1011.1 |
| 20260506182706 | 61 | 0 | 0.0 | 0.0 | 0.00 | 0.01 | 0.01 | 91 | 1011.2 |
| 20260506181804 | 61 | 59 | 0.0 | 1.0 | 0.00 | 0.01 | 0.01 | 92 | 1011.0 |
| 20260506180905 | 61 | 59 | 0.0 | 1.0 | 0.00 | 0.01 | 0.01 | 93 | 1010.9 |
| 20260506180005 | 62 | 156 | 0.0 | 1.0 | 0.00 | 0.01 | 0.01 | 92 | 1010.9 |
| 20260506175404 | 62 | 156 | 0.0 | 1.0 | 0.00 | 0.01 | 0.01 | 91 | 1011.0 |
| 20260506174504 | 62 | 148 | 0.0 | 4.0 | 0.00 | 0.01 | 0.01 | 89 | 1010.9 |
| 20260506173604 | 64 | 155 | 1.0 | 6.0 | 0.00 | 0.01 | 0.01 | 83 | 1010.8 |
| 20260506172704 | 65 | 157 | 0.0 | 4.0 | 0.00 | 0.01 | 0.01 | 72 | 1010.7 |
| 20260506171804 | 66 | 154 | 0.0 | 3.0 | 0.00 | 0.01 | 0.01 | 71 | 1010.5 |
| 20260506170904 | 66 | 154 | 0.0 | 3.0 | 0.00 | 0.01 | 0.01 | 71 | 1010.4 |
| 20260506170004 | 66 | 154 | 0.0 | 2.0 | 0.00 | 0.01 | 0.01 | 71 | 1010.9 |
| 20260506165404 | 66 | 154 | 0.0 | 3.0 | 0.00 | 0.01 | 0.01 | 71 | 1010.6 |
| 20260506164504 | 66 | 162 | 1.0 | 6.0 | 0.00 | 0.01 | 0.01 | 70 | 1010.6 |
| 20260506163604 | 66 | 160 | 0.0 | 3.0 | 0.00 | 0.01 | 0.01 | 73 | 1010.8 |
| 20260506162746 | 66 | 174 | 0.0 | 4.0 | 0.00 | 0.01 | 0.01 | 72 | 1010.5 |
| 20260506161804 | 66 | 157 | 1.0 | 4.0 | 0.00 | 0.01 | 0.01 | 72 | 1010.6 |
| 20260506160907 | 66 | 161 | 1.0 | 7.0 | 0.00 | 0.01 | 0.01 | 71 | 1010.8 |
| 20260506160004 | 66 | 162 | 1.0 | 9.0 | 0.00 | 0.01 | 0.01 | 73 | 1010.9 |
| 20260506155404 | 67 | 168 | 1.0 | 9.0 | 0.00 | 0.01 | 0.01 | 72 | 1010.8 |
| 20260506154504 | 67 | 162 | 2.0 | 9.0 | 0.00 | 0.01 | 0.01 | 70 | 1010.9 |
| 20260506153611 | 68 | 155 | 1.0 | 9.0 | 0.00 | 0.01 | 0.01 | 69 | 1010.7 |
| 20260506152707 | 68 | 166 | 1.0 | 7.0 | 0.00 | 0.01 | 0.01 | 69 | 1010.6 |
| 20260506151804 | 69 | 168 | 2.0 | 9.0 | 0.00 | 0.01 | 0.01 | 69 | 1010.6 |
| 20260506150905 | 69 | 161 | 2.0 | 13.0 | 0.00 | 0.01 | 0.01 | 68 | 1010.2 |
| 20260506150005 | 69 | 160 | 3.0 | 11.0 | 0.00 | 0.01 | 0.01 | 66 | 1010.5 |
| 20260506145404 | 69 | 157 | 4.0 | 11.0 | 0.00 | 0.01 | 0.01 | 65 | 1010.4 |
| 20260506144504 | 69 | 160 | 3.0 | 13.0 | 0.00 | 0.01 | 0.01 | 65 | 1010.5 |
| 20260506143604 | 70 | 161 | 3.0 | 11.0 | 0.00 | 0.01 | 0.01 | 65 | 1010.2 |
| 20260506142704 | 69 | 159 | 2.0 | 11.0 | 0.00 | 0.01 | 0.01 | 67 | 1010.3 |
| 20260506141809 | 69 | 159 | 2.0 | 9.0 | 0.00 | 0.01 | 0.01 | 66 | 1010.4 |
| 20260506140925 | 69 | 161 | 3.0 | 11.0 | 0.00 | 0.01 | 0.01 | 65 | 1010.5 |
| 20260506140005 | 70 | 165 | 2.0 | 10.0 | 0.00 | 0.01 | 0.01 | 64 | 1010.2 |
| 20260506135404 | 70 | 148 | 2.0 | 10.0 | 0.00 | 0.01 | 0.01 | 62 | 1010.2 |
| 20260506134525 | 71 | 172 | 2.0 | 9.0 | 0.00 | 0.01 | 0.01 | 61 | 1010.4 |
| 20260506133604 | 71 | 158 | 2.0 | 9.0 | 0.00 | 0.01 | 0.01 | 58 | 1010.2 |
| 20260506132704 | 72 | 155 | 2.0 | 10.0 | 0.00 | 0.01 | 0.01 | 55 | 1010.2 |
| 20260506131804 | 71 | 161 | 1.0 | 8.0 | 0.00 | 0.01 | 0.01 | 55 | 1010.7 |
| 20260506130925 | 71 | 170 | 3.0 | 8.0 | 0.00 | 0.01 | 0.01 | 57 | 1010.6 |
| 20260506130005 | 71 | 167 | 3.0 | 8.0 | 0.00 | 0.01 | 0.01 | 56 | 1011.0 |
| 20260506125404 | 70 | 157 | 2.0 | 8.0 | 0.00 | 0.01 | 0.01 | 57 | 1010.9 |
| 20260506124505 | 70 | 157 | 2.0 | 9.0 | 0.00 | 0.01 | 0.01 | 57 | 1011.2 |
| 20260506123604 | 70 | 153 | 2.0 | 9.0 | 0.00 | 0.01 | 0.01 | 57 | 1011.1 |
| 20260506122719 | 70 | 153 | 2.0 | 14.0 | 0.00 | 0.01 | 0.01 | 59 | 1010.9 |
| 20260506121804 | 71 | 153 | 2.0 | 8.0 | 0.00 | 0.01 | 0.01 | 57 | 1010.9 |
| 20260506120904 | 72 | 155 | 2.0 | 10.0 | 0.00 | 0.01 | 0.01 | 55 | 1011.0 |
| 20260506120011 | 71 | 158 | 2.0 | 9.0 | 0.00 | 0.01 | 0.01 | 54 | 1011.1 |
| 20260506115405 | 70 | 161 | 1.0 | 8.0 | 0.00 | 0.01 | 0.01 | 56 | 1011.0 |
| 20260506114525 | 70 | 157 | 3.0 | 11.0 | 0.00 | 0.01 | 0.01 | 56 | 1011.2 |
| 20260506113603 | 70 | 157 | 3.0 | 10.0 | 0.00 | 0.01 | 0.01 | 56 | 1011.1 |
| 20260506112703 | 71 | 155 | 2.0 | 9.0 | 0.00 | 0.01 | 0.01 | 56 | 1011.4 |
| 20260506111825 | 71 | 157 | 3.0 | 13.0 | 0.00 | 0.01 | 0.01 | 55 | 1011.3 |
| 20260506110924 | 71 | 157 | 3.0 | 10.0 | 0.00 | 0.01 | 0.01 | 58 | 1011.1 |
| 20260506110024 | 71 | 168 | 4.0 | 13.0 | 0.00 | 0.01 | 0.01 | 57 | 1011.1 |
| 20260506105403 | 70 | 159 | 3.0 | 13.0 | 0.00 | 0.01 | 0.01 | 56 | 1011.2 |
| 20260506104515 | 69 | 170 | 4.0 | 14.0 | 0.00 | 0.01 | 0.01 | 58 | 1011.1 |
| 20260506103624 | 70 | 170 | 3.0 | 10.0 | 0.00 | 0.01 | 0.01 | 59 | 1011.4 |
| 20260506102724 | 69 | 153 | 2.0 | 10.0 | 0.00 | 0.01 | 0.01 | 61 | 1011.2 |
| 20260506101804 | 71 | 143 | 0.0 | 2.0 | 0.00 | 0.01 | 0.01 | 65 | 1011.3 |
| 20260506100903 | 70 | 143 | 0.0 | 2.0 | 0.00 | 0.01 | 0.01 | 68 | 1011.2 |
| 20260506100004 | 69 | 143 | 0.0 | 2.0 | 0.00 | 0.01 | 0.01 | 70 | 1011.1 |
| 20260506095404 | 68 | 142 | 0.0 | 3.0 | 0.00 | 0.01 | 0.01 | 69 | 1011.3 |
| 20260506094503 | 68 | 141 | 0.0 | 2.0 | 0.00 | 0.01 | 0.01 | 69 | 1011.1 |
| 20260506093604 | 67 | 141 | 0.0 | 2.0 | 0.00 | 0.01 | 0.01 | 68 | 1011.2 |
| 20260506092703 | 67 | 141 | 0.0 | 3.0 | 0.00 | 0.01 | 0.01 | 69 | 1011.4 |
| 20260506091803 | 67 | 140 | 0.0 | 3.0 | 0.00 | 0.01 | 0.01 | 66 | 1011.1 |
| 20260506090903 | 68 | 137 | 0.0 | 1.0 | 0.00 | 0.01 | 0.01 | 68 | 1011.3 |
| 20260506090025 | 68 | 146 | 0.0 | 4.0 | 0.00 | 0.01 | 0.01 | 69 | 1011.2 |
| 20260506085403 | 67 | 131 | 0.0 | 3.0 | 0.00 | 0.01 | 0.01 | 71 | 1011.0 |
| 20260506084503 | 65 | 146 | 0.0 | 3.0 | 0.00 | 0.01 | 0.01 | 73 | 1011.2 |
| 20260506083604 | 65 | 163 | 0.0 | 4.0 | 0.00 | 0.01 | 0.01 | 76 | 1011.1 |
| 20260506082703 | 65 | 164 | 0.0 | 3.0 | 0.00 | 0.01 | 0.01 | 75 | 1011.2 |
| 20260506081803 | 64 | 164 | 0.0 | 1.0 | 0.00 | 0.01 | 0.01 | 80 | 1010.9 |
| 20260506080905 | 63 | 164 | 0.0 | 2.0 | 0.00 | 0.01 | 0.01 | 80 | 1011.2 |
| 20260506072724 | 61 | 161 | 1.0 | 4.0 | 0.00 | 0.01 | 0.01 | 84 | 1011.3 |
| 20260506071805 | 61 | 161 | 0.0 | 2.0 | 0.00 | 0.01 | 0.01 | 84 | 1011.3 |
| 20260506070903 | 60 | 161 | 0.0 | 1.0 | 0.00 | 0.01 | 0.01 | 84 | 1011.3 |
| 20260506061824 | 59 | 161 | 0.0 | 2.0 | 0.00 | 0.04 | 0.01 | 89 | 1011.3 |
| 20260506060903 | 59 | 174 | 0.0 | 4.0 | 0.00 | 0.04 | 0.01 | 89 | 1011.1 |
| 20260506050903 | 58 | 154 | 1.0 | 4.0 | 0.00 | 0.06 | 0.01 | 87 | 1011.0 |
| 20260506044503 | 59 | 155 | 0.0 | 3.0 | 0.00 | 0.06 | 0.01 | 80 | 1011.1 |
| 20260506043603 | 58 | 151 | 0.0 | 3.0 | 0.01 | 0.06 | 0.01 | 86 | 1011.3 |
| 20260506042706 | 56 | 0 | 0.0 | 0.0 | 0.01 | 0.06 | 0.01 | 94 | 1011.2 |
| 20260506041803 | 56 | 161 | 0.0 | 2.0 | 0.01 | 0.07 | 0.01 | 95 | 1011.3 |
| 20260506040903 | 56 | 0 | 0.0 | 0.0 | 0.01 | 0.07 | 0.01 | 95 | 1011.7 |
| 20260506040004 | 56 | 0 | 0.0 | 0.0 | 0.01 | 0.08 | 0.01 | 94 | 1011.6 |
| 20260506035403 | 56 | 0 | 0.0 | 0.0 | 0.01 | 0.08 | 0.01 | 94 | 1011.7 |
| 20260506034503 | 56 | 161 | 0.0 | 1.0 | 0.01 | 0.09 | 0.01 | 94 | 1011.7 |
| 20260506033605 | 56 | 0 | 0.0 | 0.0 | 0.00 | 0.09 | 0.00 | 92 | 1011.7 |
| 20260506032703 | 56 | 161 | 0.0 | 2.0 | 0.00 | 0.09 | 0.00 | 91 | 1011.7 |
| 20260506031803 | 57 | 161 | 0.0 | 1.0 | 0.00 | 0.10 | 0.00 | 90 | 1011.9 |
| 20260506030903 | 58 | 161 | 0.0 | 2.0 | 0.00 | 0.11 | 0.00 | 87 | 1012.5 |
| 20260506030024 | 58 | 161 | 0.0 | 1.0 | 0.00 | 0.11 | 0.00 | 88 | 1012.2 |
| 20260506025403 | 58 | 161 | 0.0 | 1.0 | 0.00 | 0.11 | 0.00 | 88 | 1012.2 |
| 20260506024503 | 58 | 161 | 0.0 | 2.0 | 0.00 | 0.11 | 0.00 | 88 | 1012.2 |
| 20260506023603 | 58 | 161 | 0.0 | 1.0 | 0.00 | 0.11 | 0.00 | 88 | 1012.4 |
| 20260506022703 | 58 | 161 | 0.0 | 2.0 | 0.00 | 0.11 | 0.00 | 87 | 1012.3 |
| 20260506021803 | 58 | 160 | 0.0 | 2.0 | 0.00 | 0.11 | 0.00 | 85 | 1012.3 |
| 20260506020924 | 58 | 160 | 0.0 | 1.0 | 0.00 | 0.11 | 0.00 | 87 | 1012.1 |
| 20260506020003 | 58 | 160 | 0.0 | 1.0 | 0.00 | 0.11 | 0.00 | 89 | 1012.2 |
| 20260506015403 | 58 | 160 | 0.0 | 1.0 | 0.00 | 0.11 | 0.00 | 89 | 1012.2 |
| 20260506014503 | 58 | 0 | 0.0 | 0.0 | 0.00 | 0.11 | 0.00 | 89 | 1011.7 |
| 20260506013604 | 59 | 160 | 0.0 | 2.0 | 0.00 | 0.11 | 0.00 | 88 | 1011.9 |
| 20260506012724 | 59 | 160 | 0.0 | 1.0 | 0.00 | 0.11 | 0.00 | 87 | 1011.6 |
| 20260506011805 | 59 | 0 | 0.0 | 0.0 | 0.00 | 0.11 | 0.00 | 88 | 1011.7 |
| 20260506010903 | 59 | 160 | 0.0 | 1.0 | 0.00 | 0.11 | 0.00 | 86 | 1011.7 |
| 20260506010003 | 59 | 160 | 0.0 | 1.0 | 0.00 | 0.11 | 0.00 | 86 | 1011.6 |
| 20260506005408 | 58 | 0 | 0.0 | 0.0 | 0.00 | 0.11 | 0.00 | 86 | 1011.9 |
| 20260506004504 | 58 | 0 | 0.0 | 0.0 | 0.00 | 0.11 | 0.00 | 89 | 1011.9 |